[[{"header":{"parameterUnit":"m.s-1","parameterCategory":1,"la1":30.2991,"la2":30.254,"lo1":-89.0895,"lo2":-89.0444,"dy":0.0017,"dx":0.0017,"nx":28,"ny":28,"refTime":"2025-01-03T09:00:00:Z","depth":0,"parameterNumber":2,"parameterNumberName":"U-component_of_WINDS"},"data":[0,0,0,0,0,0,0,0,0,0,0,0,0,0,0,0,0,0,0,0,0,0,0,0,0,0,0,0,0,0,0,0,0,0,0,0,0,0,0,0,0,0,0,0,0,0,0,0,0,0,0,0,0,0,0,0,0,0,-4.4852,-4.4852,0,-4.4882,-4.4883,-4.4883,-4.4739,-4.4735,-4.4731,-4.4727,-4.476,-4.4765,-4.4769,0,0,0,0,0,0,0,0,0,0,0,0,0,-4.4669,-4.4673,-4.4852,-4.4852,-4.4852,-4.4882,-4.4883,-4.4883,-4.474,-4.4735,-4.4729,-4.4725,-4.4758,-4.4764,-4.477,0,0,0,0,0,0,0,0,0,0,0,0,0,-4.4729,-4.4674,-4.4852,-4.4784,-4.4779,-4.4882,-4.4883,-4.4883,-4.4741,-4.4734,-4.4728,-4.4722,-4.4756,-4.4763,-4.4771,-4.4941,0,0,-4.4792,-4.4796,0,0,0,0,0,0,0,0,-4.4726,-4.4736,-4.4794,-4.4789,-4.4783,-4.48,-4.483,-4.4903,-4.4742,-4.4755,-4.4726,-4.4719,-4.4779,-4.4784,-4.4803,-4.4942,-4.4944,-4.4793,-4.4797,-4.4801,-4.4803,0,0,0,0,0,0,0,-4.4722,-4.4734,-4.4864,-4.4795,-4.4788,-4.4753,-4.4754,-4.4843,-4.4802,-4.4754,-4.4743,-4.4749,-4.4774,-4.4797,-4.4803,-4.4944,-4.4793,-4.4799,-4.4804,-4.4807,-4.5221,-4.5227,0,0,0,0,0,0,-4.4726,-4.4731,-4.4863,-4.4865,-4.4738,-4.4761,-4.4763,-4.4801,-4.48,-4.4794,-4.4754,-4.4742,-4.4787,-4.4795,-4.4803,-4.5,-4.48,-4.4807,-4.4811,-4.5214,-4.5222,-4.5229,0,0,0,0,0,0,-4.4723,-4.4739,-4.4861,-4.4795,-4.4808,-4.4771,-4.4815,-4.4805,-4.4827,-4.4801,-4.4793,-4.4784,-4.4783,-4.4793,-4.4907,-4.4999,-4.481,-4.4817,-4.5206,-4.5217,-4.5226,-4.5396,0,0,0,0,0,0,-4.4718,-4.4739,-4.4804,-4.4798,-4.4812,-4.4965,-4.4821,-4.481,-4.484,-4.4824,-4.4827,-4.4822,-4.4779,-4.4897,-4.4914,-4.5006,-4.4823,-4.5198,-4.5211,-4.5223,-4.5382,-4.5411,-4.5436,0,0,0,0,0,-4.4712,-4.4852,-4.4808,-4.4824,-4.4892,-4.4971,-4.4979,-4.4926,-4.4848,-4.4912,-4.4894,-4.4821,-4.4987,-4.491,-4.4928,-4.5023,-4.5192,-4.5207,-4.5222,-4.537,-4.5405,-4.5435,0,0,0,0,0,0,-4.4871,-4.485,-4.4801,-4.4942,-4.4959,-4.4946,-4.5025,-4.4965,-4.5005,-4.4989,-4.4922,-4.4924,-4.5049,-4.5047,-4.4962,-4.5186,-4.5075,-4.5095,-4.5182,-4.5215,-4.5242,-4.5239,-4.4829,0,0,0,0,0,-4.4922,-4.4988,-4.4966,-4.5093,-4.5103,-4.5064,-4.5096,-4.5053,-4.5069,-4.5075,-4.5066,-4.5084,-4.5139,-4.5177,-4.5227,-4.5382,-4.5379,-4.5456,-4.5483,-4.5505,-4.5522,-4.5601,-4.5634,-4.5279,-4.5279,-4.5278,0,0,-4.5029,-4.5026,-4.5071,-4.5124,-4.5132,-4.5201,-4.5071,-4.515,-4.52,-4.5087,-4.5193,-4.5187,-4.5202,-4.5336,-4.5395,-4.5339,-4.5619,-4.5524,-4.5542,-4.5547,-4.562,-4.5653,-4.5683,-4.5289,-4.5287,-4.5286,0,0,-4.5259,-4.5264,-4.5368,-4.5378,-4.5392,-4.5364,-4.5389,-4.5385,-4.5376,-4.5481,-4.5397,-4.5456,-4.5554,-4.5567,-4.5587,-4.5819,-4.5752,-4.5837,-4.5976,-4.6053,-4.6081,-4.6106,-4.6186,-4.6216,-4.5854,-4.5855,-4.5855,0,-4.539,-4.549,-4.543,-4.5514,-4.5539,-4.5439,-4.5544,-4.5557,-4.5587,-4.5606,-4.5543,-4.5661,-4.5665,-4.5799,-4.5855,-4.5875,-4.5901,-4.5836,-4.6082,-4.6106,-4.6128,-4.6204,-4.6235,-4.5865,-4.5864,-4.5863,-4.5862,0,-4.565,-4.572,-4.5803,-4.5832,-4.5867,-4.5961,-4.5915,-4.5957,-4.5911,-4.589,-4.5996,-4.5997,-4.6044,-4.6073,-4.603,-4.62,-4.6165,-4.6094,-4.598,-4.6173,-4.6243,-4.6272,-4.5879,-4.5876,-4.5873,-4.587,0,0,-4.5981,-4.5973,-4.6005,-4.6015,-4.6022,-4.6075,-4.6164,-4.6208,-4.6245,-4.6269,-4.634,-4.6424,-4.6357,-4.6379,-4.6337,-4.6405,-4.6586,-4.6324,-4.6324,-4.6371,-4.6771,-4.6824,-4.6859,-4.6542,-4.6548,-4.6552,-4.6769,0,-4.6204,-4.6354,-4.6302,-4.6455,-4.6518,-4.6423,-4.65,-4.6512,-4.6495,-4.6545,-4.6525,-4.6585,-4.6493,-4.6505,-4.6569,-4.6551,-4.6665,-4.6535,-4.6607,-4.6611,-4.6605,-4.6896,-4.6952,-4.7157,-4.6797,-4.6801,-4.6805,0,-4.6484,-4.6516,-4.6676,-4.6668,-4.6693,-4.6763,-4.6798,-4.6848,-4.6859,-4.6841,-4.6866,-4.6808,-4.6893,-4.6782,-4.6898,-4.681,-4.6837,-4.6833,-4.6839,-4.6843,-4.6718,-4.6905,-4.7222,-4.7252,-4.6848,-4.6844,-4.6841,0,-4.6706,-4.679,-4.6895,-4.6908,-4.6903,-4.6954,-4.6954,-4.6959,-4.6988,-4.7019,-4.7037,-4.7079,-4.7101,-4.7134,-4.7089,-4.7012,-4.7211,-4.7096,-4.7197,-4.7199,-4.7243,-4.724,-4.7566,-4.7264,-4.7263,-4.7263,-4.7262,0,-4.696,-4.706,-4.6995,-4.706,-4.7169,-4.7107,-4.7217,-4.7207,-4.7212,-4.7272,-4.7194,-4.7252,-4.7189,-4.7242,-4.7207,-4.7307,-4.7319,-4.7306,-4.7295,-4.7312,-4.7313,-4.7327,-4.7311,-4.7271,-4.7269,-4.7267,-4.7266,0,-4.7227,-4.7187,-4.7295,-4.728,-4.7279,-4.736,-4.7347,-4.7406,-4.7382,-4.7459,-4.7474,-4.7436,-4.7494,-4.7452,-4.751,-4.7486,-4.7617,-4.7587,-4.7613,-4.7604,-4.7707,-4.7697,-4.8051,-4.8094,-4.7767,-4.777,-4.7773,0,-4.739,-4.7465,-4.7457,-4.7491,-4.7496,-4.7553,-4.7581,-4.7524,-4.7557,-4.7573,-4.763,-4.7681,-4.7718,-4.7814,-4.7792,-4.7835,-4.7804,-4.7925,-4.781,-4.7824,-4.7803,-4.7798,-4.7804,-4.7948,-4.7952,-4.7955,-4.7958,0,-4.7683,-4.7659,-4.7703,-4.774,-4.7776,-4.7802,-4.7823,-4.7855,-4.7796,-4.7838,-4.7894,-4.7923,-4.798,-4.8031,-4.8066,-4.8065,-4.8002,-4.7994,-4.802,-4.8037,-4.8047,-4.804,-4.7674,-4.7986,-4.7983,-4.7981,-4.798,-4.7979,-4.7901,-4.7962,-4.7965,-4.8016,-4.8025,-4.8045,-4.8099,-4.808,-4.8127,-4.8168,-4.8131,-4.8199,-4.8206,-4.8246,-4.8253,-4.8305,-4.8255,-4.8293,-4.8302,-4.8311,-4.8325,-4.8041,-4.8312,-4.8311,-4.831,-4.8309,-4.8309,0,-4.8188,-4.8185,-4.8233,-4.8262,-4.8302,-4.8238,-4.8256,-4.8294,-4.8354,-4.8365,-4.8403,-4.8467,-4.8515,-4.8496,-4.8538,-4.8584,-4.8555,-4.8596,-4.8591,-4.8592,-4.8368,-4.8341,-4.8618,-4.8618,-4.8618,-4.8618,-4.8618,-4.8618,-4.8342,-4.844,-4.8417,-4.8518,-4.8514,-4.8579,-4.8595,-4.8613,-4.8621,-4.8696,-4.8735,-4.8722,-4.8721,-4.8761,-4.8802,-4.8795,-4.8814,-4.8865,-4.8848,-4.8639,-4.8608,-4.8579,-4.8553,-4.887,-4.8871,-4.9066,-4.9068,-4.907]},{"header":{"parameterUnit":"m.s-1","parameterCategory":1,"la1":30.2991,"la2":30.254,"lo1":-89.0895,"lo2":-89.0444,"dy":0.0017,"dx":0.0017,"nx":28,"ny":28,"refTime":"2025-01-03T09:00:00:Z","depth":0,"parameterNumber":3,"parameterNumberName":"V-component_of_WINDS"},"data":[0,0,0,0,0,0,0,0,0,0,0,0,0,0,0,0,0,0,0,0,0,0,0,0,0,0,0,0,0,0,0,0,0,0,0,0,0,0,0,0,0,0,0,0,0,0,0,0,0,0,0,0,0,0,0,0,0,0,-1.3877,-1.3878,0,-1.3934,-1.3935,-1.3935,-1.3955,-1.3955,-1.3955,-1.3955,-1.4014,-1.4016,-1.4017,0,0,0,0,0,0,0,0,0,0,0,0,0,-1.3785,-1.3787,-1.3877,-1.3878,-1.3879,-1.3934,-1.3935,-1.3936,-1.3956,-1.3955,-1.3955,-1.3955,-1.4013,-1.4015,-1.4017,0,0,0,0,0,0,0,0,0,0,0,0,0,-1.3832,-1.3787,-1.3877,-1.3895,-1.3898,-1.3934,-1.3935,-1.3936,-1.3956,-1.3955,-1.3955,-1.3955,-1.4013,-1.4015,-1.4018,-1.4041,0,0,-1.4026,-1.4027,0,0,0,0,0,0,0,0,-1.3829,-1.3835,-1.3892,-1.3894,-1.3897,-1.3937,-1.3924,-1.3971,-1.3956,-1.3934,-1.3955,-1.3954,-1.3989,-1.3993,-1.4005,-1.4043,-1.4046,-1.4026,-1.4028,-1.4029,-1.403,0,0,0,0,0,0,0,-1.3826,-1.3833,-1.39,-1.3893,-1.3896,-1.39,-1.3907,-1.3933,-1.3962,-1.3935,-1.3937,-1.3943,-1.399,-1.4002,-1.4006,-1.4047,-1.4026,-1.4028,-1.403,-1.4031,-1.4104,-1.4105,0,0,0,0,0,0,-1.382,-1.383,-1.3898,-1.3902,-1.3861,-1.3902,-1.3909,-1.3925,-1.3962,-1.3967,-1.3944,-1.3944,-1.3998,-1.4003,-1.4008,-1.4036,-1.4029,-1.4031,-1.4033,-1.4104,-1.4105,-1.4105,0,0,0,0,0,0,-1.3818,-1.3826,-1.3896,-1.3866,-1.3876,-1.3904,-1.3921,-1.3926,-1.3938,-1.3968,-1.3974,-1.3951,-1.3998,-1.4005,-1.4032,-1.4039,-1.4032,-1.4035,-1.4104,-1.4104,-1.4105,-1.4093,0,0,0,0,0,0,-1.3815,-1.3825,-1.3834,-1.3866,-1.3877,-1.3919,-1.3922,-1.3927,-1.3943,-1.3944,-1.3976,-1.3981,-1.3998,-1.4028,-1.4034,-1.4042,-1.4037,-1.4103,-1.4104,-1.4105,-1.4093,-1.4093,-1.4093,0,0,0,0,0,-1.3811,-1.3829,-1.3835,-1.3843,-1.3889,-1.3919,-1.3925,-1.3944,-1.3943,-1.3952,-1.3971,-1.398,-1.4037,-1.403,-1.4038,-1.4047,-1.4103,-1.4104,-1.4104,-1.4093,-1.4093,-1.4093,0,0,0,0,0,0,-1.3798,-1.3834,-1.384,-1.3869,-1.3891,-1.3922,-1.3935,-1.3944,-1.3966,-1.3967,-1.3989,-1.3996,-1.4021,-1.4037,-1.4029,-1.4069,-1.407,-1.4073,-1.4059,-1.4059,-1.4059,-1.4055,-1.4039,0,0,0,0,0,-1.3798,-1.3819,-1.3849,-1.3872,-1.3882,-1.3906,-1.392,-1.3932,-1.3956,-1.3965,-1.3986,-1.4009,-1.4031,-1.4046,-1.4069,-1.4095,-1.4102,-1.4104,-1.4104,-1.4104,-1.4106,-1.412,-1.4121,-1.4108,-1.4108,-1.4108,0,0,-1.3799,-1.3821,-1.3834,-1.387,-1.3888,-1.3909,-1.3914,-1.3937,-1.3952,-1.3969,-1.3995,-1.4011,-1.4038,-1.4064,-1.4077,-1.4078,-1.4111,-1.4105,-1.4105,-1.4107,-1.4121,-1.4122,-1.4123,-1.4108,-1.4108,-1.4108,0,0,-1.3812,-1.3831,-1.3851,-1.3868,-1.3895,-1.3911,-1.3916,-1.3946,-1.3956,-1.3983,-1.3996,-1.4014,-1.4053,-1.4071,-1.4085,-1.4101,-1.411,-1.4108,-1.4109,-1.4121,-1.4122,-1.4123,-1.4128,-1.413,-1.4109,-1.4109,-1.4109,0,-1.381,-1.3842,-1.386,-1.3881,-1.3896,-1.391,-1.393,-1.3947,-1.398,-1.3989,-1.399,-1.4038,-1.4057,-1.4086,-1.409,-1.4101,-1.4106,-1.4104,-1.4121,-1.4122,-1.4123,-1.4128,-1.413,-1.4109,-1.4109,-1.4109,-1.4109,0,-1.3837,-1.3859,-1.3872,-1.3902,-1.3918,-1.3939,-1.3959,-1.3973,-1.3983,-1.3998,-1.4024,-1.4047,-1.4074,-1.4082,-1.4092,-1.4112,-1.4112,-1.4116,-1.4118,-1.4123,-1.4128,-1.4131,-1.4108,-1.4108,-1.4108,-1.4109,0,0,-1.3845,-1.3883,-1.3887,-1.39,-1.393,-1.3947,-1.3967,-1.3993,-1.4004,-1.4025,-1.4042,-1.4074,-1.4077,-1.4093,-1.4105,-1.4116,-1.4126,-1.4119,-1.412,-1.4119,-1.4148,-1.4145,-1.4147,-1.4131,-1.4132,-1.4132,-1.4146,0,-1.386,-1.3897,-1.3913,-1.3942,-1.3961,-1.3974,-1.3992,-1.4011,-1.4025,-1.4044,-1.4059,-1.4081,-1.4084,-1.4093,-1.4105,-1.4122,-1.4132,-1.4121,-1.4147,-1.4148,-1.414,-1.4149,-1.4147,-1.4158,-1.4148,-1.4148,-1.4148,0,-1.3884,-1.3905,-1.3935,-1.3961,-1.397,-1.3985,-1.4008,-1.4026,-1.4048,-1.4057,-1.4073,-1.4085,-1.4105,-1.4104,-1.4133,-1.4125,-1.4136,-1.4146,-1.4147,-1.415,-1.4149,-1.4153,-1.4163,-1.4164,-1.4152,-1.4152,-1.4151,0,-1.3885,-1.3921,-1.3943,-1.3954,-1.3985,-1.3995,-1.4008,-1.403,-1.4043,-1.4063,-1.4072,-1.4094,-1.4107,-1.4124,-1.414,-1.4138,-1.4166,-1.4167,-1.4174,-1.4174,-1.4181,-1.418,-1.4192,-1.4188,-1.4188,-1.4187,-1.4187,0,-1.3901,-1.3919,-1.3944,-1.3958,-1.3978,-1.3995,-1.4015,-1.4029,-1.4047,-1.4064,-1.4076,-1.4091,-1.4112,-1.413,-1.4143,-1.4163,-1.4169,-1.4177,-1.418,-1.4176,-1.4175,-1.4184,-1.4183,-1.4188,-1.4188,-1.4188,-1.4188,0,-1.3906,-1.3923,-1.3949,-1.3975,-1.3981,-1.3995,-1.4017,-1.4031,-1.4044,-1.4065,-1.4071,-1.4092,-1.4113,-1.4131,-1.4159,-1.4168,-1.4189,-1.4193,-1.4182,-1.4183,-1.4189,-1.4188,-1.4208,-1.4211,-1.4204,-1.4204,-1.4204,0,-1.3915,-1.3929,-1.3956,-1.3968,-1.398,-1.3999,-1.4012,-1.4029,-1.4042,-1.4067,-1.4077,-1.4099,-1.4117,-1.415,-1.4168,-1.4189,-1.4194,-1.4199,-1.4197,-1.4192,-1.4193,-1.4192,-1.4193,-1.4199,-1.4199,-1.4199,-1.4199,0,-1.3929,-1.3937,-1.3955,-1.3976,-1.3991,-1.4009,-1.4026,-1.4035,-1.4055,-1.4069,-1.409,-1.4104,-1.4132,-1.4153,-1.4175,-1.4188,-1.4197,-1.4199,-1.4202,-1.4198,-1.419,-1.4194,-1.4182,-1.4199,-1.4199,-1.4199,-1.4199,-1.4199,-1.3937,-1.3949,-1.3969,-1.3989,-1.4003,-1.4019,-1.4033,-1.4047,-1.4065,-1.4088,-1.4097,-1.4118,-1.4138,-1.4169,-1.4182,-1.4199,-1.42,-1.4204,-1.4205,-1.4206,-1.4205,-1.4187,-1.4203,-1.4203,-1.4203,-1.4203,-1.4203,0,-1.3951,-1.3964,-1.3981,-1.4005,-1.402,-1.4026,-1.4045,-1.4057,-1.4076,-1.4093,-1.411,-1.4134,-1.4154,-1.4172,-1.4193,-1.4203,-1.4207,-1.4208,-1.4207,-1.421,-1.4203,-1.4198,-1.4204,-1.4204,-1.4204,-1.4204,-1.4204,-1.4204,-1.396,-1.398,-1.399,-1.4017,-1.403,-1.4051,-1.4061,-1.4075,-1.4089,-1.4114,-1.4131,-1.4142,-1.416,-1.4182,-1.42,-1.4205,-1.4212,-1.4212,-1.4218,-1.4211,-1.4211,-1.421,-1.4206,-1.4213,-1.4213,-1.4223,-1.4223,-1.4223]}]]